[[{"header":{"parameterUnit":"m.s-1","parameterCategory":1,"la1":30.2991,"la2":30.254,"lo1":-89.0895,"lo2":-89.0444,"dy":0.0017,"dx":0.0017,"nx":28,"ny":28,"refTime":"2024-10-20T09:00:00:Z","depth":0,"parameterNumber":2,"parameterNumberName":"U-component_of_WINDS"},"data":[0,0,0,0,0,0,0,0,0,0,0,0,0,0,0,0,0,0,0,0,0,0,0,0,0,0,0,0,0,0,0,0,0,0,0,0,0,0,0,0,0,0,0,0,0,0,0,0,0,0,0,0,0,0,0,0,0,0,-1.2224,-1.2224,0,-1.2207,-1.2207,-1.2207,-1.2174,-1.2173,-1.2173,-1.2172,-1.2155,-1.2155,-1.2156,0,0,0,0,0,0,0,0,0,0,0,0,0,-1.223,-1.223,-1.2224,-1.2224,-1.2224,-1.2207,-1.2207,-1.2207,-1.2174,-1.2173,-1.2173,-1.2172,-1.2155,-1.2155,-1.2156,0,0,0,0,0,0,0,0,0,0,0,0,0,-1.2222,-1.223,-1.2224,-1.2206,-1.2204,-1.2207,-1.2207,-1.2206,-1.2174,-1.2173,-1.2172,-1.2172,-1.2155,-1.2155,-1.2156,-1.2176,0,0,-1.2156,-1.2156,0,0,0,0,0,0,0,0,-1.2222,-1.2222,-1.2209,-1.2207,-1.2205,-1.2192,-1.2203,-1.2196,-1.2175,-1.2186,-1.2172,-1.2171,-1.2168,-1.2167,-1.2166,-1.2175,-1.2174,-1.2156,-1.2156,-1.2157,-1.2157,0,0,0,0,0,0,0,-1.2223,-1.2222,-1.2217,-1.2209,-1.2206,-1.2198,-1.2196,-1.2201,-1.2182,-1.2185,-1.2182,-1.2181,-1.2167,-1.2166,-1.2166,-1.2174,-1.2156,-1.2156,-1.2157,-1.2157,-1.2198,-1.2199,0,0,0,0,0,0,-1.2226,-1.2223,-1.2218,-1.2217,-1.2211,-1.2199,-1.2197,-1.2197,-1.2182,-1.2179,-1.2181,-1.2179,-1.2166,-1.2165,-1.2165,-1.2187,-1.2157,-1.2157,-1.2157,-1.2197,-1.2199,-1.22,0,0,0,0,0,0,-1.2226,-1.2226,-1.2219,-1.2219,-1.2218,-1.22,-1.2201,-1.2197,-1.2196,-1.218,-1.2176,-1.2184,-1.2165,-1.2165,-1.2173,-1.2186,-1.2157,-1.2157,-1.2196,-1.2198,-1.2199,-1.2233,0,0,0,0,0,0,-1.2227,-1.2226,-1.2234,-1.222,-1.2218,-1.2227,-1.2201,-1.2197,-1.2196,-1.2193,-1.2181,-1.2178,-1.2165,-1.2173,-1.2173,-1.2186,-1.2157,-1.2195,-1.2197,-1.2199,-1.223,-1.2235,-1.2239,0,0,0,0,0,-1.2227,-1.2244,-1.2234,-1.2234,-1.2227,-1.2228,-1.2227,-1.2211,-1.2198,-1.2205,-1.2194,-1.2179,-1.2185,-1.2174,-1.2174,-1.2187,-1.2194,-1.2196,-1.2199,-1.2228,-1.2234,-1.2239,0,0,0,0,0,0,-1.226,-1.2242,-1.2231,-1.2244,-1.2238,-1.2223,-1.2231,-1.2217,-1.2215,-1.2213,-1.2193,-1.219,-1.2201,-1.2195,-1.2184,-1.2206,-1.2187,-1.2189,-1.2209,-1.2215,-1.2219,-1.222,-1.2157,0,0,0,0,0,-1.2269,-1.2271,-1.2255,-1.2268,-1.2266,-1.2249,-1.2249,-1.2237,-1.223,-1.2228,-1.2218,-1.2212,-1.2213,-1.2213,-1.2213,-1.2229,-1.2226,-1.2238,-1.2242,-1.2246,-1.2248,-1.2256,-1.2261,-1.2207,-1.2207,-1.2207,0,0,-1.2287,-1.2277,-1.228,-1.2275,-1.2269,-1.2272,-1.2247,-1.2252,-1.2254,-1.2228,-1.2236,-1.2229,-1.2221,-1.2233,-1.2238,-1.2228,-1.2263,-1.2249,-1.2252,-1.2252,-1.2259,-1.2264,-1.2269,-1.2208,-1.2208,-1.2208,0,0,-1.2322,-1.2315,-1.2325,-1.2319,-1.231,-1.2299,-1.2301,-1.2289,-1.2283,-1.229,-1.227,-1.2273,-1.2274,-1.227,-1.2267,-1.23,-1.2286,-1.2301,-1.2324,-1.2332,-1.2336,-1.234,-1.2351,-1.2356,-1.2303,-1.2303,-1.2303,0,-1.2346,-1.235,-1.2332,-1.2337,-1.2335,-1.2312,-1.2322,-1.2318,-1.2309,-1.2308,-1.2297,-1.2299,-1.2292,-1.2303,-1.2311,-1.231,-1.2312,-1.2302,-1.2337,-1.234,-1.2344,-1.2354,-1.2359,-1.2305,-1.2305,-1.2305,-1.2304,0,-1.2379,-1.2382,-1.2391,-1.2383,-1.2383,-1.239,-1.2374,-1.2375,-1.2363,-1.2353,-1.2361,-1.2352,-1.2349,-1.2351,-1.2339,-1.236,-1.2354,-1.234,-1.2321,-1.2351,-1.2361,-1.2365,-1.2308,-1.2307,-1.2306,-1.2306,0,0,-1.2434,-1.2416,-1.242,-1.2416,-1.2404,-1.2406,-1.2413,-1.241,-1.2412,-1.2407,-1.2412,-1.2414,-1.2401,-1.2398,-1.2386,-1.2393,-1.242,-1.2378,-1.2378,-1.2386,-1.2442,-1.2452,-1.2457,-1.241,-1.2411,-1.2411,-1.2442,0,-1.2466,-1.2477,-1.2461,-1.2475,-1.2477,-1.2455,-1.2461,-1.2455,-1.2446,-1.2447,-1.2437,-1.2438,-1.2421,-1.2419,-1.2425,-1.2415,-1.243,-1.2413,-1.2415,-1.2415,-1.2417,-1.2462,-1.2473,-1.2503,-1.2446,-1.2447,-1.2447,0,-1.2505,-1.2502,-1.2516,-1.2503,-1.2504,-1.2509,-1.2505,-1.2507,-1.2499,-1.2492,-1.2489,-1.2474,-1.248,-1.2462,-1.247,-1.2458,-1.2458,-1.2453,-1.2454,-1.2453,-1.2433,-1.2463,-1.2512,-1.2517,-1.2453,-1.2453,-1.2452,0,-1.2544,-1.2543,-1.2551,-1.2548,-1.2534,-1.2538,-1.2533,-1.2524,-1.2523,-1.252,-1.2519,-1.2517,-1.2515,-1.2514,-1.2499,-1.2487,-1.2509,-1.2489,-1.2503,-1.2503,-1.2508,-1.2508,-1.2558,-1.2509,-1.2509,-1.2509,-1.2508,0,-1.2581,-1.2591,-1.2568,-1.2573,-1.2583,-1.2565,-1.2575,-1.2567,-1.256,-1.2563,-1.2544,-1.2548,-1.2528,-1.2529,-1.2518,-1.2526,-1.2526,-1.252,-1.2517,-1.2522,-1.2523,-1.2521,-1.2519,-1.251,-1.2509,-1.2509,-1.2509,0,-1.2626,-1.2611,-1.2618,-1.2604,-1.2601,-1.2609,-1.2597,-1.2601,-1.259,-1.2595,-1.2595,-1.2579,-1.258,-1.2565,-1.2562,-1.2555,-1.2568,-1.2561,-1.2571,-1.2568,-1.2583,-1.2582,-1.2634,-1.264,-1.2587,-1.2587,-1.2588,0,-1.265,-1.2657,-1.2643,-1.2644,-1.2639,-1.2641,-1.264,-1.2622,-1.2622,-1.2614,-1.2619,-1.2618,-1.2616,-1.2619,-1.2607,-1.2605,-1.2598,-1.2616,-1.2598,-1.2602,-1.2598,-1.2598,-1.2598,-1.262,-1.2621,-1.2622,-1.2622,0,-1.2696,-1.2688,-1.2687,-1.2684,-1.2683,-1.268,-1.2675,-1.2677,-1.2658,-1.2659,-1.2659,-1.2658,-1.2655,-1.2655,-1.2651,-1.2645,-1.263,-1.2628,-1.2631,-1.2636,-1.2641,-1.2639,-1.2581,-1.2627,-1.2626,-1.2626,-1.2626,-1.2626,-1.2731,-1.2736,-1.2727,-1.2727,-1.2722,-1.2718,-1.2721,-1.2711,-1.2711,-1.2707,-1.2697,-1.2699,-1.2691,-1.2684,-1.268,-1.2681,-1.2672,-1.2677,-1.2678,-1.2679,-1.2682,-1.2641,-1.2681,-1.268,-1.268,-1.268,-1.268,0,-1.2776,-1.2769,-1.2769,-1.2763,-1.2763,-1.2749,-1.2743,-1.2744,-1.2746,-1.2739,-1.2738,-1.2739,-1.2738,-1.2726,-1.2724,-1.2727,-1.2721,-1.2727,-1.2727,-1.2726,-1.269,-1.2688,-1.2733,-1.2733,-1.2733,-1.2733,-1.2733,-1.2733,-1.2799,-1.2806,-1.2798,-1.2802,-1.2795,-1.2797,-1.2795,-1.2791,-1.2786,-1.2788,-1.2787,-1.2779,-1.277,-1.2768,-1.2766,-1.2763,-1.2763,-1.2772,-1.2766,-1.2734,-1.2728,-1.2724,-1.2721,-1.2772,-1.2772,-1.2802,-1.2802,-1.2802]},{"header":{"parameterUnit":"m.s-1","parameterCategory":1,"la1":30.2991,"la2":30.254,"lo1":-89.0895,"lo2":-89.0444,"dy":0.0017,"dx":0.0017,"nx":28,"ny":28,"refTime":"2024-10-20T09:00:00:Z","depth":0,"parameterNumber":3,"parameterNumberName":"V-component_of_WINDS"},"data":[0,0,0,0,0,0,0,0,0,0,0,0,0,0,0,0,0,0,0,0,0,0,0,0,0,0,0,0,0,0,0,0,0,0,0,0,0,0,0,0,0,0,0,0,0,0,0,0,0,0,0,0,0,0,0,0,0,0,-2.5044,-2.5045,0,-2.5072,-2.5072,-2.5073,-2.5058,-2.5058,-2.5057,-2.5056,-2.5082,-2.5083,-2.5084,0,0,0,0,0,0,0,0,0,0,0,0,0,-2.4977,-2.4978,-2.5044,-2.5045,-2.5045,-2.5072,-2.5072,-2.5073,-2.5058,-2.5058,-2.5057,-2.5056,-2.5081,-2.5083,-2.5085,0,0,0,0,0,0,0,0,0,0,0,0,0,-2.5006,-2.4979,-2.5044,-2.5041,-2.5041,-2.5072,-2.5072,-2.5073,-2.5059,-2.5058,-2.5056,-2.5055,-2.5081,-2.5083,-2.5085,-2.5119,0,0,-2.5091,-2.5092,0,0,0,0,0,0,0,0,-2.5004,-2.5008,-2.5041,-2.5042,-2.5042,-2.5061,-2.5058,-2.5088,-2.5059,-2.5052,-2.5056,-2.5055,-2.5075,-2.5078,-2.5085,-2.512,-2.5121,-2.5091,-2.5092,-2.5093,-2.5094,0,0,0,0,0,0,0,-2.5002,-2.5007,-2.5055,-2.5042,-2.5042,-2.5038,-2.5041,-2.5064,-2.5069,-2.5052,-2.5052,-2.5055,-2.5075,-2.5083,-2.5086,-2.5122,-2.5091,-2.5093,-2.5094,-2.5095,-2.5187,-2.5188,0,0,0,0,0,0,-2.5001,-2.5005,-2.5054,-2.5056,-2.502,-2.504,-2.5043,-2.5056,-2.5069,-2.507,-2.5056,-2.5054,-2.508,-2.5083,-2.5087,-2.5128,-2.5093,-2.5095,-2.5096,-2.5185,-2.5187,-2.5188,0,0,0,0,0,0,-2.4999,-2.5005,-2.5053,-2.503,-2.5036,-2.5042,-2.5056,-2.5057,-2.5065,-2.5072,-2.5073,-2.5063,-2.508,-2.5084,-2.5111,-2.5129,-2.5096,-2.5098,-2.5184,-2.5186,-2.5188,-2.5211,0,0,0,0,0,0,-2.4997,-2.5005,-2.5018,-2.5031,-2.5038,-2.5078,-2.5057,-2.5058,-2.5069,-2.5067,-2.5079,-2.508,-2.5079,-2.5108,-2.5113,-2.5131,-2.51,-2.5182,-2.5185,-2.5187,-2.5208,-2.5213,-2.5217,0,0,0,0,0,-2.4995,-2.5023,-2.5019,-2.5025,-2.5055,-2.5079,-2.5083,-2.5082,-2.507,-2.5083,-2.5088,-2.5079,-2.5126,-2.5111,-2.5117,-2.5135,-2.5181,-2.5184,-2.5187,-2.5206,-2.5212,-2.5217,0,0,0,0,0,0,-2.5011,-2.5024,-2.502,-2.5053,-2.5065,-2.5077,-2.5093,-2.5088,-2.5103,-2.5101,-2.5098,-2.5101,-2.513,-2.5135,-2.5119,-2.5169,-2.5152,-2.5156,-2.5165,-2.517,-2.5174,-2.5172,-2.5101,0,0,0,0,0,-2.5018,-2.5038,-2.5048,-2.5076,-2.5083,-2.5087,-2.5098,-2.5097,-2.5109,-2.5113,-2.512,-2.5131,-2.5148,-2.516,-2.5176,-2.5209,-2.5212,-2.5224,-2.5229,-2.5232,-2.5236,-2.5254,-2.526,-2.5197,-2.5197,-2.5197,0,0,-2.5033,-2.5043,-2.5056,-2.508,-2.5089,-2.5109,-2.5091,-2.5113,-2.5127,-2.5116,-2.5143,-2.5148,-2.5161,-2.5192,-2.5205,-2.5197,-2.5254,-2.5236,-2.5239,-2.524,-2.5257,-2.5263,-2.5268,-2.5199,-2.5199,-2.5198,0,0,-2.5071,-2.5081,-2.5106,-2.5116,-2.513,-2.5133,-2.5139,-2.5152,-2.5155,-2.5182,-2.5175,-2.5191,-2.5221,-2.5231,-2.5239,-2.5282,-2.5275,-2.5287,-2.531,-2.5327,-2.5332,-2.5337,-2.5352,-2.5357,-2.5291,-2.5291,-2.5291,0,-2.5088,-2.5118,-2.5119,-2.5141,-2.5152,-2.5144,-2.5169,-2.5178,-2.5197,-2.5204,-2.5195,-2.5232,-2.524,-2.5273,-2.5284,-2.5291,-2.5298,-2.5285,-2.5332,-2.5336,-2.534,-2.5355,-2.536,-2.5292,-2.5292,-2.5292,-2.5292,0,-2.5138,-2.5159,-2.5177,-2.5197,-2.521,-2.5233,-2.5237,-2.525,-2.5247,-2.5251,-2.5279,-2.5288,-2.5307,-2.5314,-2.5312,-2.5347,-2.5342,-2.5332,-2.5314,-2.5348,-2.5361,-2.5367,-2.5294,-2.5294,-2.5293,-2.5293,0,0,-2.5185,-2.5206,-2.5213,-2.5222,-2.5238,-2.5254,-2.5277,-2.5296,-2.5307,-2.5321,-2.534,-2.5366,-2.5357,-2.5367,-2.5366,-2.5381,-2.5415,-2.537,-2.537,-2.5378,-2.5454,-2.5461,-2.5468,-2.541,-2.5412,-2.5412,-2.5453,0,-2.5224,-2.5266,-2.5267,-2.5305,-2.5324,-2.5318,-2.5338,-2.535,-2.5354,-2.5371,-2.5375,-2.5394,-2.5381,-2.5387,-2.5403,-2.5408,-2.543,-2.5405,-2.5428,-2.5428,-2.5424,-2.5475,-2.5482,-2.552,-2.5459,-2.546,-2.546,0,-2.5275,-2.5292,-2.5331,-2.5346,-2.5354,-2.5372,-2.539,-2.5406,-2.5419,-2.5421,-2.5433,-2.543,-2.5453,-2.5435,-2.5467,-2.5449,-2.5459,-2.5463,-2.5464,-2.5466,-2.5446,-2.5478,-2.5532,-2.5538,-2.5469,-2.5468,-2.5467,0,-2.5305,-2.5338,-2.5366,-2.5374,-2.5391,-2.5404,-2.5411,-2.5424,-2.5435,-2.5451,-2.5458,-2.5476,-2.5485,-2.5499,-2.55,-2.5487,-2.5532,-2.5514,-2.5534,-2.5534,-2.5543,-2.5542,-2.56,-2.555,-2.555,-2.555,-2.555,0,-2.5348,-2.5373,-2.538,-2.5397,-2.5424,-2.5426,-2.5452,-2.5459,-2.547,-2.5488,-2.5483,-2.55,-2.5501,-2.5518,-2.552,-2.5546,-2.555,-2.5552,-2.5552,-2.5552,-2.5552,-2.5558,-2.5555,-2.5551,-2.5551,-2.5551,-2.555,0,-2.5387,-2.5392,-2.5423,-2.5437,-2.5441,-2.5461,-2.5473,-2.5489,-2.5493,-2.5516,-2.5522,-2.5528,-2.5548,-2.5552,-2.5575,-2.5576,-2.5607,-2.5604,-2.5603,-2.5602,-2.5622,-2.562,-2.5685,-2.5694,-2.5638,-2.5639,-2.5639,0,-2.5413,-2.5432,-2.5449,-2.5462,-2.547,-2.549,-2.5502,-2.5505,-2.5517,-2.5535,-2.5549,-2.5569,-2.5584,-2.5617,-2.5623,-2.5641,-2.5639,-2.566,-2.5641,-2.5641,-2.5639,-2.5638,-2.564,-2.5664,-2.5664,-2.5665,-2.5665,0,-2.546,-2.5463,-2.5481,-2.5501,-2.5516,-2.5531,-2.5545,-2.5555,-2.5559,-2.5574,-2.5595,-2.5608,-2.5632,-2.5652,-2.567,-2.5677,-2.5672,-2.5672,-2.5677,-2.5677,-2.5676,-2.5677,-2.5613,-2.567,-2.5669,-2.5669,-2.5669,-2.5669,-2.5494,-2.5511,-2.5526,-2.5546,-2.5558,-2.5571,-2.5588,-2.5595,-2.5613,-2.5634,-2.5634,-2.5657,-2.567,-2.5694,-2.5703,-2.572,-2.5713,-2.5721,-2.5723,-2.5725,-2.5727,-2.5673,-2.5724,-2.5723,-2.5723,-2.5723,-2.5723,0,-2.554,-2.555,-2.5569,-2.559,-2.5607,-2.5602,-2.5618,-2.5631,-2.5652,-2.5665,-2.5682,-2.5706,-2.5726,-2.5734,-2.5753,-2.5766,-2.5764,-2.5771,-2.577,-2.5771,-2.5732,-2.5726,-2.5772,-2.5772,-2.5772,-2.5772,-2.5772,-2.5772,-2.5567,-2.5595,-2.5599,-2.5633,-2.5642,-2.5666,-2.5675,-2.5688,-2.5699,-2.5727,-2.5743,-2.5749,-2.5761,-2.5781,-2.5798,-2.58,-2.5807,-2.5815,-2.5816,-2.5779,-2.5774,-2.5769,-2.5763,-2.5817,-2.5817,-2.5854,-2.5854,-2.5855]}]]